DESEF EDDG-ZZZZ

Flight info

Callsign DESEF
Flight time N/A
Altitude
Route
Aircraft A210

Departure

Time 2026-04-25 18:35
Airport Münster Osnabrück Airport (EDDG)

Arrival

Time N/A
Airport ZZZZ
Time Latitude Longitude Altitude Speed Heading
2026-04-25 18:28 52.13670 7.67853 162 ft 0 kts 156°
2026-04-25 18:29 52.13655 7.67863 162 ft 5 kts 148°
2026-04-25 18:29 52.13632 7.67974 161 ft 11 kts 119°
2026-04-25 18:30 52.13512 7.68126 162 ft 0 kts 141°
2026-04-25 18:30 52.13477 7.68168 162 ft 23 kts 146°
2026-04-25 18:30 52.13350 7.68267 162 ft 18 kts 155°
2026-04-25 18:31 52.13284 7.68397 162 ft 16 kts 91°
2026-04-25 18:31 52.13318 7.68602 162 ft 21 kts 71°
2026-04-25 18:31 52.13368 7.68831 162 ft 26 kts 71°
2026-04-25 18:31 52.13430 7.69124 162 ft 27 kts 67°
2026-04-25 18:32 52.13482 7.69379 162 ft 23 kts 69°
2026-04-25 18:32 52.13533 7.69622 162 ft 22 kts 66°
2026-04-25 18:32 52.13578 7.69843 162 ft 19 kts 70°
2026-04-25 18:32 52.13629 7.70005 162 ft 11 kts 42°
2026-04-25 18:33 52.13681 7.70036 162 ft 0 kts 359°
2026-04-25 18:33 52.13715 7.70023 162 ft 12 kts 342°
2026-04-25 18:33 52.13764 7.69925 162 ft 15 kts 264°
2026-04-25 18:34 52.13715 7.69624 163 ft 53 kts 258°
2026-04-25 18:34 52.13559 7.68948 239 ft 69 kts 252°
2026-04-25 18:34 52.13470 7.68251 477 ft 62 kts 257°
2026-04-25 18:34 52.13379 7.67604 720 ft 58 kts 255°
2026-04-25 18:35 52.13306 7.66894 905 ft 66 kts 261°
2026-04-25 18:35 52.13132 7.66173 1170 ft 80 kts 221°
2026-04-25 18:35 52.12541 7.66069 1248 ft 106 kts 157°
2026-04-25 18:35 52.11845 7.66613 1196 ft 114 kts 141°
2026-04-25 18:36 52.11528 7.67643 1155 ft 103 kts 72°
2026-04-25 18:36 52.11580 7.68837 1106 ft 103 kts 73°
2026-04-25 18:36 52.11598 7.69978 1162 ft 99 kts 85°
2026-04-25 18:36 52.11227 7.70919 1201 ft 106 kts 143°
2026-04-25 18:37 52.10538 7.71064 1257 ft 98 kts 198°
2026-04-25 18:37 52.10160 7.70322 1290 ft 83 kts 266°
2026-04-25 18:37 52.10472 7.69687 1289 ft 81 kts 345°
2026-04-25 18:37 52.10907 7.70321 1162 ft 104 kts 60°
2026-04-25 18:38 52.11098 7.71379 1224 ft 86 kts 34°
2026-04-25 18:38 52.11627 7.71787 1035 ft 87 kts
2026-04-25 18:38 52.12202 7.71936 934 ft 71 kts 356°
2026-04-25 18:38 52.12641 7.72003 836 ft 59 kts 345°
2026-04-25 18:39 52.13041 7.72039 770 ft 54 kts 347°
2026-04-25 18:39 52.13372 7.71921 728 ft 49 kts 324°
2026-04-25 18:39 52.13700 7.71651 559 ft 55 kts 311°
2026-04-25 18:39 52.13895 7.71141 430 ft 54 kts 280°
2026-04-25 18:40 52.13859 7.70501 289 ft 60 kts 256°
2026-04-25 18:40 52.13755 7.69892 183 ft 53 kts 258°
2026-04-25 18:40 52.13654 7.69388 164 ft 36 kts 257°
2026-04-25 18:40 52.13594 7.69106 164 ft 29 kts 256°
2026-04-25 18:41 52.13498 7.68608 169 ft 57 kts 247°
2026-04-25 18:41 52.13346 7.68009 202 ft 59 kts 252°
2026-04-25 18:41 52.13271 7.67391 307 ft 52 kts 250°
2026-04-25 18:41 52.13159 7.66780 418 ft 63 kts 255°
2026-04-25 18:42 52.12992 7.66137 624 ft 66 kts 217°
2026-04-25 18:42 52.12853 7.65988 636 ft 73 kts 211°
2026-04-25 18:42 52.12099 7.66072 916 ft 82 kts 128°
2026-04-25 18:42 52.11807 7.66901 1022 ft 90 kts 89°
2026-04-25 18:43 52.11663 7.67842 1209 ft 89 kts 79°
2026-04-25 18:43 52.11668 7.68932 1145 ft 98 kts 70°
2026-04-25 18:43 52.11770 7.69964 1178 ft 92 kts 63°
2026-04-25 18:43 52.11865 7.70984 1181 ft 90 kts 62°
2026-04-25 18:44 52.12138 7.71864 1094 ft 86 kts 19°
2026-04-25 18:44 52.12708 7.72080 905 ft 80 kts 348°
2026-04-25 18:44 52.13172 7.72048 799 ft 59 kts 341°
2026-04-25 18:44 52.13558 7.71961 667 ft 55 kts 335°
2026-04-25 18:45 52.13881 7.71741 569 ft 50 kts 302°
2026-04-25 18:45 52.13978 7.71175 415 ft 53 kts 268°
2026-04-25 18:45 52.13897 7.70588 321 ft 54 kts 249°
2026-04-25 18:45 52.13786 7.70054 221 ft 48 kts 254°
2026-04-25 18:46 52.13680 7.69535 168 ft 44 kts 257°
2026-04-25 18:46 52.13608 7.69174 164 ft 42 kts 250°
2026-04-25 18:46 52.13460 7.68519 201 ft 72 kts 245°
2026-04-25 18:46 52.13315 7.67774 378 ft 63 kts 261°
2026-04-25 18:47 52.13273 7.67335 539 ft 57 kts 265°
2026-04-25 18:47 52.13245 7.66666 708 ft 62 kts 271°
2026-04-25 18:47 52.13079 7.66104 977 ft 68 kts 193°
2026-04-25 18:47 52.12544 7.66035 1138 ft 83 kts 173°
2026-04-25 18:48 52.11974 7.66231 1340 ft 89 kts 157°
2026-04-25 18:48 52.11375 7.66584 1564 ft 89 kts 156°
2026-04-25 18:48 52.10798 7.66885 1796 ft 90 kts 162°
2026-04-25 18:48 52.10170 7.67073 1985 ft 89 kts 169°
2026-04-25 18:49 52.09524 7.67169 2098 ft 102 kts 178°
2026-04-25 18:49 52.08812 7.67162 2144 ft 106 kts 182°
2026-04-25 18:49 52.08044 7.67137 2172 ft 111 kts 179°
2026-04-25 18:49 52.07272 7.67174 2218 ft 112 kts 177°
2026-04-25 18:50 52.06478 7.67255 2175 ft 117 kts 174°
2026-04-25 18:50 52.05658 7.67439 2100 ft 120 kts 168°
2026-04-25 18:50 52.04875 7.67613 2217 ft 111 kts 171°
2026-04-25 18:50 52.04087 7.67775 2220 ft 115 kts 168°
2026-04-25 18:51 52.03303 7.68010 2237 ft 115 kts 169°
2026-04-25 18:51 52.02774 7.68159 2202 ft 118 kts 166°
2026-04-25 18:51 52.01692 7.68362 2203 ft 117 kts 179°
2026-04-25 18:51 52.00868 7.68390 2110 ft 122 kts 173°
2026-04-25 18:52 52.00008 7.68488 2046 ft 122 kts 175°
2026-04-25 18:52 51.99166 7.68553 1984 ft 122 kts 181°
2026-04-25 18:52 51.98339 7.68357 1887 ft 119 kts 194°
2026-04-25 18:52 51.97554 7.67969 1873 ft 115 kts 201°
2026-04-25 18:53 51.96784 7.67522 1809 ft 119 kts 204°
2026-04-25 18:53 51.96060 7.66940 1783 ft 113 kts 213°
2026-04-25 18:53 51.95389 7.66412 1897 ft 104 kts 196°
2026-04-25 18:53 51.94659 7.66126 1882 ft 112 kts 195°
2026-04-25 18:54 51.93531 7.67287 1961 ft 114 kts 106°
2026-04-25 18:54 51.93241 7.68456 1828 ft 113 kts 101°
2026-04-25 18:54 51.92955 7.69656 1605 ft 114 kts 101°
2026-04-25 18:55 51.92686 7.70852 1440 ft 113 kts 105°
2026-04-25 18:55 51.92346 7.71998 1248 ft 110 kts 94°
2026-04-25 18:55 51.92303 7.73198 1099 ft 103 kts 75°
2026-04-25 18:55 51.92327 7.74343 1079 ft 102 kts 78°
2026-04-25 18:56 51.92312 7.75466 1072 ft 107 kts 82°
2026-04-25 18:56 51.92318 7.76422 1065 ft 108 kts 76°
2026-04-25 18:56 51.92357 7.77626 1123 ft 106 kts 75°
2026-04-25 18:56 51.92389 7.78855 1050 ft 110 kts 77°
2026-04-25 18:57 51.92418 7.79979 1102 ft 77 kts 67°
2026-04-25 18:57 51.92612 7.80654 982 ft 67 kts 23°
2026-04-25 18:57 51.93025 7.80697 916 ft 62 kts 339°
2026-04-25 18:57 51.93311 7.80623 893 ft 61 kts 339°
2026-04-25 18:58 51.93842 7.80543 916 ft 53 kts 349°
2026-04-25 18:58 51.94357 7.79983 622 ft 61 kts 266°
2026-04-25 18:58 51.94352 7.79303 472 ft 59 kts 276°
2026-04-25 18:59 51.94421 7.78008 208 ft 56 kts 271°
2026-04-25 18:59 51.94447 7.77387 186 ft 15 kts 270°
2026-04-25 19:00 51.94416 7.77161 185 ft 11 kts 175°
2026-04-25 19:00 51.94380 7.77187 185 ft 0 kts 46°